Regional Weather Roundup
Issued by NWS

Home | Current Version | Previous Version | Text Only | Print | Product List | Glossary Off
Versions: 1 2 3 4 5 6 7 8 9 10 11 12 13 14 15 16 17 18 19 20 21 22 23 24 25 26 27 28 29 30 31 32 33 34 35 36 37 38 39 40 41 42 43 44 45 46 47 48 49 50

000
ASUS43 KLOT 292112
RWRIL

ILLINOIS REGIONAL WEATHER ROUNDUP
NATIONAL WEATHER SERVICE CHICAGO/ROMEOVILLE IL
400 PM CDT FRI MAY 29 2015

NOTE: "FAIR" INDICATES FEW OR NO CLOUDS BELOW 12,000 FEET WITH NO
SIGNIFICANT WEATHER AND/OR OBSTRUCTIONS TO VISIBILITY.

* THESE STATIONS ARE NOT UNDER NWS QUALITY CONTROL. THEY ALSO MAY NOT
  REPORT WEATHER SUCH AS PRECIPITATION OR FOG.

ILZ001-002-007-009-015-016-024-292200-
NORTHWEST ILLINOIS

CITY           SKY/WX    TMP DP  RH WIND       PRES   REMARKS
MOLINE         PTSUNNY   81  65  58 SW17      29.91F HX  83
STERLING*      MOSUNNY   81  66  61 SW10G22   29.91F HX  83
SAVANNA*       CLOUDY    79  65  62 W12G18    29.90F HX  81
$$

ILZ003-004-008-010-011-017-018-292200-
NORTH CENTRAL ILLINOIS

CITY           SKY/WX    TMP DP  RH WIND       PRES   REMARKS
ROCKFORD       CLOUDY    77  64  64 SW14G23   29.92F
FREEPORT*      MOSUNNY   78  67  71 SW10      29.92F
ROCHELLE*      PTSUNNY   78  68  71 SW13      29.92F HX  80
DE KALB*       CLOUDY    74  64  70 W14       29.93S
PERU*          PTSUNNY   82  64  55 SW16      29.93F HX  83
$$

ILZ005-006-012>014-019>023-292200-
NORTHEAST ILLINOIS

CITY           SKY/WX    TMP DP  RH WIND       PRES   REMARKS
CHICAGO-OHARE  PTSUNNY   78  64  61 S22G28    29.91F HX  80
CHICAGO-MIDWAY PTSUNNY   82  65  56 SW16G24   29.92F HX  84
AURORA         CLOUDY    80  63  55 SW14      29.92F HX  81
LANSING*       PTSUNNY   81  62  52 S15G21    29.94F HX  82
JOLIET*        MOSUNNY   82  68  62 SW10G16   29.92F HX  85
WAUKEGAN       PTSUNNY   70  64  81 SE9       29.90F
DUPAGE AIRPORT PTSUNNY   79  65  62 S13       29.91F HX  81
KANKAKEE*      PTSUNNY   85  65  52 SW17G25   29.95F HX  86
WHEELING       PTSUNNY   80  68  66 S12       29.91F HX  83
MORRIS*        CLOUDY    79  68  69 SW9       29.91F HX  81
ROMEOVILLE*    MOSUNNY   80  64  58 SW16G23   29.92F HX  82
NORTHERLY ISL    N/A     67  62  84 SE5         N/A
$$

LMZ740>746-292200-
SOUTHERN LAKE MICHIGAN

STATION/POSITION SKY/WX   TEMP    WIND        PRES    VSBY  WAVE
                          AIR SEA DIR/SP/G                  HT/PER
                          (F)     (DEG/KT/KT) (MB)    (MI)  (FT/S)
SOUTHERN BUOY              48 38  140/ 10/ 10 1013.9F         0
HARRISON CRIB              72     150/  8/ 10   N/A
BURNHAM HARBOR             67     130/  3/  5   N/A
BURNS HARBOR               81     180/ 17/ 22 1014.9F
MICHIGAN CITY              80     170/ 12/ 17   N/A
MICHIGAN CITY 6N           71 57  200/  8/ 10   N/A           1/ 2
ST. JOSEPH                 64 59   60/  4/  6   N/A           1
$$

ILZ025>027-034>036-040-047-049-050-058-095>099-292200-
WEST-CENTRAL ILLINOIS

CITY           SKY/WX    TMP DP  RH WIND       PRES   REMARKS
QUINCY         CLOUDY    76  64  66 SW12      29.97F
GALESBURG*     PTSUNNY   79  65  62 SW14      29.95S HX  81
MACOMB*        PTSUNNY   79  65  63 SW15      29.98S HX  81
JACKSONVILLE*  PTSUNNY   83  68  59 W13G18    29.95F THUNDER HX  86
PITTSFIELD*    CLOUDY    75  68  80 SW7       29.99F
$$

ILZ028>032-037-038-041>044-048-051>054-059>061-292200-
CENTRAL ILLINOIS

CITY           SKY/WX    TMP DP  RH WIND       PRES   REMARKS
PONTIAC        MOSUNNY   85  68  56 SW17G24   29.95S HX  88
BLOOMINGTON    PTSUNNY   84  68  58 S23       29.96F HX  87
DECATUR        PTSUNNY   83  66  56 S15G22    29.98F HX  85
PEORIA         MOSUNNY   84  64  50 SW14      29.94F HX  85
LACON*         PTSUNNY   81  63  55 SW13      29.93F HX  82
LINCOLN*       MOSUNNY   83  65  54 S12G18    29.92F HX  84
SPRINGFIELD    PTSUNNY   83  70  64 SE17      29.95F HX  87
TAYLORVILLE    PTSUNNY   79  68  69 S13       29.97F HX  81
$$

ILZ033-039-045-046-055>057-062-063-292200-
EAST-CENTRAL ILLINOIS

CITY           SKY/WX    TMP DP  RH WIND       PRES   REMARKS
CHAMPAIGN      MOSUNNY   86  62  44 S22G29    29.98F HX  86
DANVILLE*      MOSUNNY   85  63  48 SW12      29.96F HX  85
RANTOUL*       PTSUNNY   85  64  48 SW14G23   29.98S HX  87
MATTOON        PTSUNNY   80  69  69 S5        30.00F HX  83
PARIS*         CLOUDY    84  64  50 S13G21    30.01F HX  85
$$

ILZ079-100>102-292200-
SOUTHWEST ILLINOIS

CITY           SKY/WX    TMP DP  RH WIND       PRES   REMARKS
ALTON          PTSUNNY   77  77 100 SE9       29.98F
BELLEVILLE     CLOUDY    72  72 100 S6        29.99F
CAHOKIA*       LGT RAIN  79  70  74 S6        29.98F HX  82
SPARTA*        CLOUDY    73  68  84 N13G18    30.01R THUNDER
$$

ILZ064>066-069>071-074>076-080>082-084>086-088>090-092>094-292200-
SOUTH-CENTRAL ILLINOIS

CITY           SKY/WX    TMP DP  RH WIND       PRES   REMARKS
CARBONDALE     MOSUNNY   84  68  58 S15       30.00F HX  87
CAIRO*         MOSUNNY   84  66  54 S8        30.01F HX  86
EFFINGHAM*     PTSUNNY   83  61  47 S6        30.00F HX  83
MARION         PTSUNNY   84  70  61 S15       30.01F HX  88
MT. VERNON     PTSUNNY   84  66  54 S14       30.01F HX  86
CENTRALIA*     MOSUNNY   83  65  54 S8        30.00F HX  84
SALEM*         MOSUNNY   86  64  48 S9G16     30.00F HX  87
METROPOLIS*    SUNNY     85  68  57 S9        30.01F HX  88
$$

ILZ067-068-072-073-078-083-087-091-292200-
SOUTHEAST ILLINOIS

CITY           SKY/WX    TMP DP  RH WIND       PRES   REMARKS
LAWRENCEVILLE  PTSUNNY   84  65  52 S12       30.02F HX  86
FLORA*         SUNNY     84  63  48 S14       30.00F HX  85
FAIRFIELD*     CLOUDY    85  65  50 S14       30.00F HX  87
HARRISBURG*    MOSUNNY   84  66  54 S10       30.03F HX  86
ROBINSON*      MOSUNNY   85  63  47 S13       30.03S HX  86
CARMI*         MOSUNNY   86  57  37 S13       30.01F HX  85
$$

ABBREVIATIONS USED IN REMARKS
   TC - TEMPERATURE IN CELSIUS
  WCI - WIND CHILL INDEX
   HX - HEAT INDEX
  VSB - VISIBILITY
$$



USA.gov is the U.S. government's official web portal to all federal, state and local government web resources and services.